FENGYUN 1C DEB

Satellite information

Favourite Embed

Satellite Type and Status

DEBRISIN ORBIT

Key statistics

Satellite FENGYUN 1C DEB at a glance.

Uptime

9613

Days in orbit

Revolutions

≈ 14.5

Per day

Orbit

SSO

Sun Synchronous Orbit

Inclination

98.9

Latest

Satellite identification and parameters

Extended collection of information and parameters for FENGYUN 1C DEB.

Object identification

Identified? True

Debris? True

Object name: FENGYUN 1C DEB

International designator: 1999-025BGU

Object number (NORAD): 31098

Object ID (CCSDS): 31098

Country: PEOPLES REPUBLIC OF CHINA (PRC)

Current information (Y/N): Y

RCS size: SMALL

Orbital parameters

Period: 99.446 minutes

Inclination: 98.8676 deg

SMA: 7110.266 km

Apoapsis: 743.632 km

Periapsis: 720.63 km

RAAN: 358.2753 deg

Eccentricy: 0.00161754

Argument of periapsis: 195.2813 deg

Mean anomaly: 164.7892 deg

Mean motion: 14.48018001 rev/day

Mean motion (dot): 0.00025477 rev/day2

B* drag term: 0.0068339217 1/REarth

Two-line elements (TLE)

Creation date: Sept. 2, 2025, 11:42 p.m.

Reference frame: TEME

Reference center: EARTH

Epoch: Sept. 2, 2025, 1:31 p.m. UTC

TLE line 0: 0 FENGYUN 1C DEB

TLE line 1: 1 31098U 99025BGU 25245.56371439 .00025477 00000-0 68339-2 0 9998

TLE line 2: 2 31098 98.8676 358.2753 0016175 195.2813 164.7892 14.48018001954911

Live tracking on map

Real-time ground track for satellite FENGYUN 1C DEB.

In-orbit conjunctions

A list of the most updated potential collisions computed for object FENGYUN 1C DEB.

Target Orbit TCA Probability of collision Miss distance Type
CZ-6A DEB LEO 2025-02-21 05:03:18 0.000154612 872.0 (m) DEBRIS
SPOT 1 SSO 2024-11-02 04:55:14 0.0001101157 81.0 (m) PAYLOAD
FENGYUN 1C DEB SSO 2024-10-13 16:30:08 0.0001038924 285.0 (m) DEBRIS
COSMOS 2251 LEO 2024-07-27 04:11:57 0.0001353958 731.0 (m) PAYLOAD
ALEXIS LEO 2024-07-08 02:03:01 0.0005791481 153.0 (m) PAYLOAD

Associated space launch

Chinese polar orbiting meteorological satellite

FENGYUN 1C DEB was lifted into orbit during the mission ‘Long March 4B | Feng Yun 1C’, on board a Long March 4B space rocket.

The launch took place on May 10, 1999, 1:33 a.m. from Launch Complex 7.

For more information about the launch, click the button.

Launch to space Long March 4B | Feng Yun 1C
Long March 4B | Feng Yun 1C

Agency: N/A

Status: Launch Successful

Launch date: May 10, 1999, 1:33 a.m. UTC

Rocket: Long March 4B

Launch pad: Launch Complex 7

Location: Taiyuan Satellite Launch Center, People's Republic of China

...

Latest news about this satellite

There are no fresh news available about this satellite. Check back as we update our databases every day.


Newsletter sign-up

Weekly statistics, charts and insights to help you stay on top of the space industry.